Location: T�chigga el Be�da
(16.4766°N, 9.3887°W)
Time: 09:32:02
(UTC+00:00)

CZ-2D R/B - Pass Details

Date: 27 February 2020
Orbit: 521 x 539 km, 97.4° (Epoch: 28 March)

Event Time Altitude Azimuth Distance (km) Brightness Sun altitude
Rises 19:04:25 0° 149° (SSE) 2,679 6.6 -5.7°
Reaches altitude 10° 19:06:42 10° 138° (SE) 1,791 5.6 -6.2°
Maximum altitude 19:10:05 29° 77° (ENE) 994 4.1 -7.1°
Drops below altitude 10° 19:13:29 10° 15° (NNE) 1,794 5.7 -7.9°
Sets 19:15:47 0° 5° (N) 2,686 6.7 -8.4°
